Skip Page Navigation
NASA JPL Caltech
NASA Logo - Jet Propulsion Laboratory + View the NASA Portal
+ Center for Near-Earth Object Studies
JPL Home Earth Solar System Stars & Galaxies Technology
JPL Solar System Dynamics
BODIES ORBITS EPHEMERIDES TOOLS PHYSICAL DATA DISCOVERY FAQ SITE MAP
JPL Small-Body Database Browser
Search: [ help ]  
67407 (2000 QG4)
Classification: Main-belt Asteroid          SPK-ID: 2067407
Ephemeris | Orbit Diagram | Orbital Elements | Mission Design | Physical Parameters | Discovery Circumstances | Close-Approach Data ]

[ show orbit diagram ]
Orbital Elements at Epoch 2459200.5 (2020-Dec-17.0) TDB
Reference: JPL 23 (heliocentric ecliptic J2000)
 Element Value Uncertainty (1-sigma)   Units 
e .1516952011568369 3.6179e-08  
a 2.27937905204062 9.8636e-09 au
q 1.933608188228638 8.5849e-08 au
i 12.56109450704843 4.9772e-06 deg
node 166.48725356684 1.9825e-05 deg
peri 148.1332951376593 2.6813e-05 deg
M 345.1242347812025 1.8131e-05 deg
tp 2459252.439775783862
(2021-Feb-06.93977578)
6.3366e-05 TDB
period 1256.96520529662
3.44
8.1589e-06
2.234e-08
d
yr
n .2864041092649394 1.859e-09 deg/d
Q 2.625149915852602 1.136e-08 au
  Orbit Determination Parameters
   # obs. used (total)      652  
   data-arc span      7791 days (21.33 yr)  
   first obs. used      1999-02-24  
   last obs. used      2020-06-24  
   planetary ephem.      DE441  
   SB-pert. ephem.      SB441-N16  
   condition code      0  
   norm. resid. RMS      .53937  
   source      ORB  
   producer      Otto Matic  
   solution date      2021-Apr-13 12:29:48  

Additional Information
 Earth MOID = .93007 au 
 Jupiter MOID = 2.7268 au 
 T_jup = 3.560 
[ show covariance matrix ]

Ephemeris | Orbit Diagram | Orbital Elements | Mission Design | Physical Parameters | Discovery Circumstances | Close-Approach Data ]

Physical Parameter Table
Parameter Symbol Value Units Sigma Reference Notes
absolute magnitude H 16.0   n/a MPO366024  
diameter diameter 2.647 km 0.230 urn:nasa:pds:neowise_diameters_albedos::2.0[mainbelt] (http://adsabs.harvard.edu/abs/2011ApJ...741...68M)  
geometric albedo albedo 0.058   0.016 urn:nasa:pds:neowise_diameters_albedos::2.0[mainbelt] (http://adsabs.harvard.edu/abs/2011ApJ...741...68M)  

67407 (2000 QG4)          Discovered 2000-Aug-24 by LINEAR at Socorro
Reference: 20030910/Numbers.arcLast Updated: 2004-04-19

[ show close-approach data ]
Ephemeris | Orbit Diagram | Orbital Elements | Mission Design | Physical Parameters | Discovery Circumstances | Close-Approach Data ]
ABOUT SSD CREDITS/AWARDS PRIVACY/COPYRIGHT GLOSSARY LINKS
FirstGov 2021-Jun-21 20:33 UT
(server date/time)  
NASA Home Page
Site Manager:   Ryan S. Park
Webmaster  Alan B. Chamberlin